STARLINK-1027

Last updated on Thu Dec 12 2019 00:02:03 GMT+0000 (Coordinated Universal Time)

1 44732U 19074V 19345.58335648 .00026510 00000-0 19260-3 0 9990 2 44732 53.0090 21.4876 0002349 337.8654 86.6235 15.73206951 4734

Satellite not in orbit